TimeCST,TemperatureF,Dew PointF,Humidity,Sea Level PressureIn,VisibilityMPH,Wind Direction,Wind SpeedMPH,Gust SpeedMPH,PrecipitationIn,Events,Conditions,WindDirDegrees,DateUTC
12:53 AM,15.1,12.9,91,30.04,4.0,Variable,4.6,-,N/A,,Overcast,0,2013-12-17 06:53:00
1:53 AM,16.0,12.9,88,30.03,5.0,Variable,4.6,-,N/A,,Overcast,0,2013-12-17 07:53:00
2:53 AM,17.1,15.1,92,30.00,5.0,Variable,5.8,-,N/A,,Overcast,0,2013-12-17 08:53:00
3:42 AM,18.0,15.1,88,29.92,4.0,SW,8.1,-,N/A,,Overcast,220,2013-12-17 09:42:00
3:53 AM,19.0,16.0,88,29.97,5.0,SW,8.1,-,N/A,,Mostly Cloudy,220,2013-12-17 09:53:00
4:53 AM,19.9,16.0,85,29.95,6.0,SW,10.4,18.4,N/A,,Mostly Cloudy,220,2013-12-17 10:53:00
5:16 AM,19.9,17.1,89,29.91,2.0,SW,6.9,-,0.00,Snow,Light Snow,230,2013-12-17 11:16:00
5:21 AM,19.9,17.1,89,29.90,0.8,SW,8.1,-,0.00,Snow,Light Snow,230,2013-12-17 11:21:00
5:39 AM,21.0,18.0,88,29.90,1.5,SW,6.9,-,0.01,Snow,Light Snow,230,2013-12-17 11:39:00
5:53 AM,21.0,18.0,88,29.94,2.0,WSW,6.9,-,0.02,Snow,Light Snow,240,2013-12-17 11:53:00
5:59 AM,21.0,18.0,88,29.89,3.0,SW,6.9,-,0.00,Snow,Light Snow,230,2013-12-17 11:59:00
6:53 AM,21.9,18.0,85,29.93,8.0,WSW,8.1,-,0.00,,Scattered Clouds,240,2013-12-17 12:53:00
7:53 AM,21.0,17.1,85,29.93,7.0,WSW,6.9,-,N/A,,Mostly Cloudy,240,2013-12-17 13:53:00
8:53 AM,24.1,19.0,81,29.94,9.0,Variable,3.5,-,N/A,,Mostly Cloudy,0,2013-12-17 14:53:00
9:53 AM,28.0,21.9,78,29.95,10.0,Variable,4.6,-,N/A,,Scattered Clouds,0,2013-12-17 15:53:00
10:53 AM,30.9,23.0,72,29.96,10.0,West,12.7,20.7,N/A,,Mostly Cloudy,280,2013-12-17 16:53:00
10:58 AM,30.9,23.0,72,29.91,10.0,WNW,10.4,19.6,N/A,,Mostly Cloudy,290,2013-12-17 16:58:00
11:14 AM,30.9,23.0,72,29.90,10.0,West,12.7,21.9,N/A,,Mostly Cloudy,270,2013-12-17 17:14:00
11:53 AM,32.0,23.0,69,29.94,10.0,West,10.4,18.4,N/A,,Scattered Clouds,280,2013-12-17 17:53:00
12:53 PM,34.0,21.9,61,29.93,10.0,West,8.1,16.1,N/A,,Scattered Clouds,280,2013-12-17 18:53:00
1:53 PM,34.0,19.0,54,29.93,10.0,WNW,10.4,18.4,0.00,Snow,Light Snow,300,2013-12-17 19:53:00
2:53 PM,32.0,17.1,54,29.95,10.0,WNW,13.8,20.7,0.00,,Mostly Cloudy,300,2013-12-17 20:53:00
3:53 PM,30.9,17.1,57,29.97,10.0,WNW,13.8,21.9,N/A,,Mostly Cloudy,290,2013-12-17 21:53:00
4:53 PM,28.9,16.0,58,30.00,10.0,West,8.1,-,N/A,,Mostly Cloudy,270,2013-12-17 22:53:00
5:53 PM,28.9,16.0,58,30.02,10.0,West,8.1,-,N/A,,Overcast,280,2013-12-17 23:53:00
6:53 PM,28.0,16.0,61,30.03,10.0,WNW,8.1,-,N/A,,Overcast,290,2013-12-18 00:53:00
7:53 PM,28.0,17.1,63,30.04,10.0,West,8.1,-,N/A,,Overcast,280,2013-12-18 01:53:00
8:14 PM,27.0,17.1,66,30.00,10.0,West,6.9,-,N/A,,Overcast,280,2013-12-18 02:14:00
8:24 PM,27.0,17.1,66,30.01,10.0,West,9.2,-,0.00,Snow,Light Snow,270,2013-12-18 02:24:00
8:53 PM,27.0,16.0,63,30.05,9.0,WNW,9.2,-,0.00,Snow,Light Snow,290,2013-12-18 02:53:00
9:53 PM,25.0,14.0,63,30.06,10.0,WNW,9.2,18.4,0.00,,Overcast,300,2013-12-18 03:53:00
10:53 PM,23.0,12.9,65,30.08,10.0,WNW,10.4,-,N/A,,Overcast,290,2013-12-18 04:53:00
11:35 PM,21.9,10.9,63,30.05,10.0,WNW,9.2,-,N/A,,Overcast,290,2013-12-18 05:35:00
11:53 PM,21.0,10.9,65,30.09,10.0,West,6.9,-,N/A,,Overcast,270,2013-12-18 05:53:00